Preview of NWS' New Version of Forecast
This preview is not operational and should not be used for support decisions.

Regional Weather Roundup (RWR)

Issued by National Weather Service (NWS)

                            
000
ASUS45 KCYS 211810
RWRWY 

WYOMING REGIONAL WEATHER ROUNDUP
NATIONAL WEATHER SERVICE CHEYENNE WY
1200 PM MDT SUN APR 21 2019

NOTE:  "FAIR" INDICATES FEW OR NO CLOUDS BELOW 12,000 FEET
WITH NO SIGNIFICANT WEATHER AND/OR OBSTRUCTIONS TO VISIBILITY.

WYZ001-211900-
...YELLOWSTONE NATIONAL PARK...
  
CITY           SKY/WX    TMP DP  RH WIND       PRES   REMARKS
LK YELLOWSTONE   N/A     38  33  82 VRB3      30.02R                  
6HR MIN TEMP:  33; 6HR MAX TEMP:  39; 6HR PCP:  0.05;                

W YELLOWSTONE  NOT AVBL                                               

$$
WYZ002>013-054>058-071-098>099-211900-
...NORTHERN WYOMING...
  
CITY           SKY/WX    TMP DP  RH WIND       PRES   REMARKS
JACKSON        CLOUDY    44  36  73 N7        29.94R                  
CODY           CLOUDY    41  35  79 N20G25    30.07R                  
GREYBULL       LGT RAIN  49  43  80 NW17      29.96R                  
6HR MIN TEMP:  44; 6HR MAX TEMP:  49; 6HR PCP:  0.21;                

WORLAND        CLOUDY    48  39  71 NW16      29.98R                  
6HR MIN TEMP:  48; 6HR MAX TEMP:  50;                                

SHERIDAN       LGT RAIN  46  43  89 NW12      30.08R FOG              
6HR MIN TEMP:  44; 6HR MAX TEMP:  46; 6HR PCP:  0.10;                

BUFFALO        LGT RAIN  42  41  96 N21G30    30.04R FOG              
6HR MIN TEMP:  42; 6HR MAX TEMP:  44; 6HR PCP:  0.04;                

GILLETTE       CLOUDY    44  43  96 N20       29.99R                  
6HR MIN TEMP:  43; 6HR MAX TEMP:  45; 6HR PCP:  0.11;                

HULETT         LGT RAIN  43  43 100 NE10      30.01R                  
NEWCASTLE      RAIN      46  45  93 NW6       29.95R                  

$$
WYZ014>020-022>026-101>103-211900-
...CENTRAL WYOMING...
  
CITY           SKY/WX    TMP DP  RH WIND       PRES   REMARKS
BIG PINEY      CLOUDY    45  41  86 VRB7      29.95R                  
6HR MIN TEMP:  39; 6HR MAX TEMP:  45; 6HR PCP: TRACE;                

PINEDALE       RAIN      43  39  87 S12       29.97R                  
DUBOIS         LGT RAIN  36  34  93 SE10      29.98R WCI  28          
LANDER         LGT RAIN  43  41  93 NE15      29.97R FOG              
6HR MIN TEMP:  43; 6HR MAX TEMP:  46; 6HR PCP:  0.11;                

RIVERTON       LGT RAIN  43  40  89 N20       29.97R FOG              
6HR MIN TEMP:  42; 6HR MAX TEMP:  46; 6HR PCP:  0.22;                

CASPER         CLOUDY    44  42  93 N22       29.97R                  
6HR MIN TEMP:  43; 6HR MAX TEMP:  46; 6HR PCP:  0.01;                

DOUGLAS        CLOUDY    50  43  77 N9        29.96R                  
6HR MIN TEMP:  48; 6HR MAX TEMP:  52;                                


$$
WYZ021-027>030-104>119-211900-
...SOUTHERN WYOMING...
  
CITY           SKY/WX    TMP DP  RH WIND       PRES   REMARKS
EVANSTON       PTSUNNY   50  35  56 CALM      29.92S                  
6HR MIN TEMP:  38; 6HR MAX TEMP:  50; 6HR PCP: TRACE;                

KEMMERER       DRIZZLE   45  37  76 CALM      29.95S                  
FORT BRIDGER   DRIZZLE   48  39  71 E5        29.96R                  
ROCK SPRINGS   PTSUNNY   53  37  54 NE7       29.93S                  
6HR MIN TEMP:  40; 6HR MAX TEMP:  54;                                

DIXON          CLOUDY    55  33  43 S16G25    29.97S                  
RAWLINS        CLOUDY    54  32  43 SW10      29.94R                  
6HR MIN TEMP:  43; 6HR MAX TEMP:  55;                                

SARATOGA       FAIR      54  32  43 SW20      29.94R                  
LARAMIE        MOSUNNY   59  30  33 N8        29.90S                  
6HR MIN TEMP:  44; 6HR MAX TEMP:  59;                                

CHEYENNE       PTSUNNY   54  39  57 NE18G28   29.87F                  
6HR MIN TEMP:  51; 6HR MAX TEMP:  57; 6HR PCP: TRACE;                

TORRINGTON     LGT RAIN  49  48  97 NW7       29.88S FOG              
6HR MIN TEMP:  49; 6HR MAX TEMP:  52; 6HR PCP:  0.08;                

PINE BLUFFS    CLOUDY    52  45  76 N15G21    29.88R                  

$$